Tracking 29091 objects as of 17-Jul-2024
HD Live streaming from Space Station
objects crossing your sky now

CRRES DEB (CANISTER)

Track CRRES DEB (CANISTER) now!


NORAD ID: 20811
Int'l Code: 1990-065C
Perigee: 306.8 km
Apogee: 30,778.9 km
Inclination: 17.6 °
Period: 538.1 minutes
Semi major axis: 21913 km
RCS: 0.1323 m2 (medium)
Launch date: July 25, 1990
Source: United States (US)
Launch site: AIR FORCE EASTERN TEST RANGE (AFETR)

Note: This is SATELLITE DEBRIS
Your satellite tracking list
Your tracking list is empty




NASA's NSSDC Master Catalog

Two Line Element Set (TLE):
1 20811U 90065C   24198.10024072  .00002152  00000-0  11396-2 0  9994
2 20811  17.5504 217.7906 6952710  88.6554 343.1934  2.67624255102575
Source of the keplerian elements: AFSPC